Regional Weather Roundup
Issued by NWS

Home | Current Version | Previous Version | Graphics & Text | Print | Product List | Glossary On
Versions: 1 2 3 4 5 6 7 8 9 10 11 12 13 14 15 16 17 18 19 20 21 22 23 24 25 26 27 28 29 30 31 32 33 34 35 36 37 38 39 40 41 42 43 44 45 46 47 48 49 50
000
ASUS43 KDTX 261410
RWRMI
MICHIGAN HOURLY REGIONAL WEATHER ROUNDUP
NATIONAL WEATHER SERVICE DETROIT/PONTIAC MI
1000 AM EDT THU APR 26 2018

NOTE: "FAIR" INDICATES FEW OR NO CLOUDS BELOW 12,000 FEET WITH NO
SIGNIFICANT WEATHER AND/OR OBSTRUCTION TO VISIBILITY.

MIZ047>049-052>055-059>063-066>070-074>076-081>083-261500-
SOUTHEAST LOWER MICHIGAN

CITY           SKY/WX    TMP DP  RH WIND       PRES   REMARKS
ADRIAN         CLOUDY    45  39  79 CALM      29.96F
ALMA           FAIR      46  28  47 W5        29.95F
ANN ARBOR      FAIR      43  40  89 CALM      29.95S
BAD AXE        FAIR      46  29  51 W5        29.93F
CARO           FAIR      44  32  63 W5        29.94F
DETROIT CITY   FAIR      47  35  63 W6        29.96S
DETROIT        FAIR      49  37  63 NW5       29.95F
FLINT          FAIR      46  34  62 NW9       29.95F
GROSSE ILE     FAIR      47  39  72 W3        29.95S
HILLSDALE      FAIR      45  37  76 CALM      29.94S
HOWELL         FAIR      46  38  73 W7        29.95S

CITY           SKY/WX    TMP DP  RH WIND       PRES   REMARKS
JACKSON        FAIR      45  40  82 CALM      29.95S
LAMBERTVILLE   PTSUNNY   47  43  86 CALM      29.96S
LANSING        FAIR      48  37  65 NW8       29.96F
LAPEER         FAIR      45  33  61 W8        29.95S
MASON          FAIR      49  35  59 W7        29.95F
MONROE         PTSUNNY   45  41  88 W6        29.95S FOG
MT. CLEMENS    MOSUNNY   46  34  61 W7        29.94S
PONTIAC        FAIR      46  37  71 W7        29.93F
PORT HOPE        N/A     42  32  67 NW7       29.91S
PORT HURON     FAIR      45  34  65 NW3       29.94F
TRI CITIES     FAIR      44  30  57 W6        29.95F
MIDLAND        FAIR      44  30  58 W5        29.94F
TROY           FAIR      47  36  64 W7        29.96S
SAGINAW HB     FAIR      45  30  57 SW6       29.95S
$$
MIZ043>046-050>051-056>058-064>065-071>073-077>080-261500-
SOUTHWEST LOWER MICHIGAN

CITY           SKY/WX    TMP DP  RH WIND       PRES   REMARKS
BATTLE CREEK   FAIR      49  40  71 W3        29.96S
BENTON HARBOR  FAIR      50  36  58 CALM      29.96F
BIG RAPIDS     FAIR      46  29  52 CALM      29.93F
COLDWATER      CLOUDY    44  42  94 CALM      29.96S FOG
FREMONT        FAIR      46  25  43 W5        29.95F
HOLLAND        FAIR      48  35  60 SW5       29.96F
GRAND RAPIDS   PTSUNNY   50  34  54 W6        29.95F
IONIA          FAIR      48  33  56 W7        29.95S
KALAMAZOO      FAIR      50  36  58 N6        29.96F
LUDINGTON      FAIR      44  31  60 SW8       29.95S
MARSHALL       FAIR      47  40  74 W6        29.95S
MOUNT PLEASANT FAIR      46  31  54 W3        29.94F
MUSKEGON       FAIR      48  33  56 SW6       29.96F
SOUTH HAVEN    FAIR      50  36  59 CALM      29.96F
$$
MIZ016>042-261500-
NORTHERN LOWER MICHIGAN

CITY           SKY/WX    TMP DP  RH WIND       PRES   REMARKS
ALPENA         FAIR      44  26  49 NW5       29.91F
BEAVER ISLAND  FAIR      45  28  51 SW9       29.89F
BELLAIRE       FAIR      40  29  65 S3        29.93F
CADILLAC       FAIR      44  29  55 SW6       29.91S
CHARLEVOIX     FAIR      43  28  55 S6        29.94F
FRANKFORT      FAIR      45  30  56 SW7       29.93S
GAYLORD        FAIR      41  25  53 W7        29.90R
GRAYLING       FAIR      41  28  60 SW3       29.90F
HARBOR SPRINGS FAIR      38  28  68 SW5       29.92S WCI  34
HOUGHTON LAKE  FAIR      40  29  64 W5        29.92F
MANISTEE       FAIR      45  31  58 VRB3      29.94F
OSCODA         FAIR      45  27  49 E3        29.91S
PELLSTON       FAIR      43  28  55 SE5       29.90F
ROGERS CITY    FAIR      44  25  47 NW5       29.91F
TRAVERSE CITY  FAIR      46  28  49 SW8       29.91F
$$
MIZ007>008-015-261500-
EASTERN UPPER MICHIGAN

CITY           SKY/WX    TMP DP  RH WIND       PRES   REMARKS
KINROSS        FAIR      41  26  55 SW5       29.88F
MACKINAC ISLAN FAIR      39  30  70 SW7       29.89F WCI  34
NEWBERRY       FAIR      38  28  67 SW12      29.85F WCI  31
MUNISING         N/A     46  28  49 SW10      29.82F
$$
MIZ004>006-011>014-085-261500-
CENTRAL UPPER MICHIGAN

CITY           SKY/WX    TMP DP  RH WIND       PRES   REMARKS
MANISTIQUE     FAIR      40  32  74 S7        29.87F WCI  35
ESCANABA       FAIR      44  30  57 SW3       29.87F
MENOMINEE      FAIR      46  32  58 W5        29.90F
SAWYER-GWINN   SUNNY     41  27  56 SW3       29.83F
$$
MIZ001>003-009>011-084-261500-
WESTERN UPPER MICHIGAN

CITY           SKY/WX    TMP DP  RH WIND       PRES   REMARKS
IRON MOUNTAIN  FAIR      50  27  40 W6        29.84S
HOUGHTON       FAIR      50  26  39 W8        29.78F
COPPER HARBOR    N/A     51  23  33 VRB3      29.76F
IRONWOOD       FAIR      49  31  49 SW12      29.80F
$$

ABBREVIATIONS USED IN REMARKS
   TC - TEMPERATURE IN CELSIUS
  WCI - WIND CHILL INDEX
   HX - HEAT INDEX
  VSB - VISIBILITY




USA.gov is the U.S. government's official web portal to all federal, state and local government web resources and services.